Other Public Products
Issued by NWS Charleston, SC

Home | Current Version | Previous Version | Text Only | Print | Product List | Glossary On
Versions: 1 2 3 4 5 6 7 8 9 10 11 12 13 14 15 16 17 18 19 20 21 22 23 24 25 26 27 28 29 30 31 32 33 34 35 36 37 38 39 40 41 42 43 44 45 46 47 48 49 50
000
FPUS82 KCHS 220725
OPUCHS

TEST...KCHS/KSAV Gateway Observations...TEST
National Weather Service Charleston SC
200 AM EST WED FEB 22 2017

NOTE: "fair" indicates few or no clouds below 12,000 feet with no
significant weather and/or obstructions to visibility.

SCZ050-WAZ558-NCZ071-TXZ119-213-PAZ071-DCZ001-FLZ074-172-MI076-
NYZ176-178-MAZ016-IL014-TNZ027-NJZ106-GAZ044-MD014-220800-
...Gateway Observations for Charleston International...

CITY           SKY/WX    TMP DP  RH WIND       PRES   REMARKS
Chas Airport   CLOUDY    59  56  89 E7        29.99F
Seattle        LGT RAIN  40  37  89 E9        30.14R WCI  34
Charlotte      CLOUDY    53  50  89 NE5       30.02F
Dallas DFW     CLEAR     53  40  61 NW7       29.92F
Dallas Love    CLEAR     55  45  68 CALM      29.94S
Philladelphia  CLOUDY    42  36  79 S3        30.10F
Wash National  CLOUDY    47  40  76 S6        30.08F
Baltimore      CLOUDY    44  39  82 CALM      30.07F
Miami          PTCLDY    68  63  84 SW5       29.87F
Detroit        CLOUDY    45  44  97 CALM      29.90F FOG
Newark         CLOUDY    42  34  73 S7        30.08F
Laguardia      CLOUDY    45  34  65 SW8         N/A
J F K          CLOUDY    41  38  89 S8        30.09F
Boston Logan   CLOUDY    38  32  79 SW10      30.07F WCI  31
Ft. Lauderdale CLOUDY    74  63  68 SE15      29.86F
Chicago O`Hare PTCLDY    55  52  89 SW6       29.84S
Chicago Midway PTCLDY    54  50  86 SW5       29.85F FOG
Houston Bush   CLEAR     59  49  69 W7        29.91F
Houston Hobby  CLEAR     59  50  72 W8        29.91F
Nashville      CLOUDY    57  55  93 N5        29.93F FOG
Atlanta        LGT RAIN  61  59  93 E10       29.90F

$$

GAZ044-118-TXZ119-213-NCZ071-DCZ001-MDZ014-506-PAZ021-071-NJZ106-
NYZ176-178-MAZ106-OHZ011-021-055-MIZ076-KYZ091-ILZ014-INZ047-
MNZ060-220800-
...Gateway Observations for Savannah International...

CITY           SKY/WX    TMP DP  RH WIND       PRES   REMARKS
Savannah Arpt  LGT RAIN  64  60  87 E5        29.95F
Atlanta        LGT RAIN  61  59  93 E10       29.90F
Charlotte      CLOUDY    53  50  89 NE5       30.02F
Dallas DFW     CLEAR     53  40  61 NW7       29.92F
Houston Bush   CLEAR     59  49  69 W7        29.91F
Wash National  CLOUDY    47  40  76 S6        30.08F
Wash Dulles    CLOUDY    46  36  68 S6        30.06F
Baltimore      CLOUDY    44  39  82 CALM      30.07F
Philadelphia   CLOUDY    42  36  79 S3        30.10F
Newark         CLOUDY    42  34  73 S7        30.08F
Laguardia      CLOUDY    45  34  65 SW8         N/A
J F K          CLOUDY    41  38  89 S8        30.09F
Boston         CLOUDY    38  32  79 SW10      30.07F WCI  31
Pittsburg      CLOUDY    54  44  69 S3        29.94F
Akron          CLOUDY    57  46  66 W7        29.94S
Cleveland      CLOUDY    56  47  71 S8        29.94F
Cincinnati     CLOUDY    55  55 100 S6        29.94F FOG
Columbus       CLOUDY    51  51 100 S3        29.93S
Detroit        CLOUDY    45  44  97 CALM      29.90F FOG
Chicago O`Hare PTCLDY    55  52  89 SW6       29.84S
Minneapolis    MOCLDY    44  40  85 CALM      29.69R
Indianapolis   CLOUDY    55  53  93 SE6       29.90S FOG

$$




USA.gov is the U.S. government's official web portal to all federal, state and local government web resources and services.